This demonstration page uses our WeatherBlox Daily Observations layout. Learn more.

Left ArrowRight Arrow

Hourly Observations for September 15, 2018

Temp ( °F °C ) Dew Point ( °F °C ) Humidity (%) Winds ( mph kmh ) Pressure ( in mb ) Visibility ( mi km ) Precip ( " mm )
12:53 am 00:53 Clear 72 22.2 63 17.2 73 73 ESE 7 11 29.93 1014 10 16 0.00 0.00
1:53 am 01:53 Clear 71 21.7 63 17.2 76 76 ESE 8 13 29.93 1014 10 16 0.00 0.00
2:53 am 02:53 Clear 71 21.7 64 17.8 79 79 ESE 8 13 29.93 1014 10 16 0.00 0.00
3:53 am 03:53 Clear 69 20.6 64 17.8 84 84 E 6 9 29.93 1014 10 16 0.00 0.00
4:53 am 04:53 Clear 67 19.4 64 17.8 91 91 NE 5 7 29.93 1014 10 16 0.00 0.00
5:53 am 05:53 Clear 66 18.9 64 17.8 93 93 ENE 6 9 29.93 1014 10 16 0.00 0.00
6:53 am 06:53 Clear 66 18.9 64 17.8 93 93 ENE 6 9 29.95 1014 10 16 0.00 0.00
7:53 am 07:53 Sunny 66 18.9 64 17.8 93 93 ENE 6 9 29.97 1015 10 16 0.00 0.00
8:53 am 08:53 Sunny 70 21.1 66 18.9 87 87 E 9 15 29.99 1016 10 16 0.00 0.00
9:20 am 09:20 Mostly Cloudy 70 21.1 66 18.9 87 87 ESE 12 19 30.00 1016 10 16 0.00 0.00
9:48 am 09:48 Cloudy 70 21 64 18 83 83 E 10 17 30.00 1016 10 16 0.00 0.00
9:53 am 09:53 Cloudy 70 21.1 65 18.3 84 84 E 12 19 30.00 1016 10 16 0.00 0.00
10:39 am 10:39 Cloudy 71 21.7 64 17.8 79 79 E 9 15 30.03 1017 10 16 0.00 0.00
10:53 am 10:53 Cloudy 72 22.2 64 17.8 76 76 ESE 8 13 30.02 1017 10 16 0.00 0.00
11:13 am 11:13 Cloudy 72 22.2 64 17.8 76 76 ESE 9 15 30.03 1017 10 16 0.00 0.00
11:53 am 11:53 Cloudy 73 22.8 64 17.8 74 74 E 7 11 30.02 1017 10 16 0.00 0.00
12:53 pm 12:53 Mostly Cloudy 77 25 65 18.3 66 66 VRB 3 6 30.00 1016 10 16 0.00 0.00
1:11 pm 13:11 Partly Cloudy 80 26.7 65 18.3 60 60 VRB 3 6 29.94 1014 10 16 0.00 0.00
1:53 pm 13:53 Partly Cloudy 80 26.7 63 17.2 56 56 NE 9 15 29.97 1015 10 16 0.00 0.00
2:53 pm 14:53 Mostly Cloudy 82 27.8 64 17.8 55 55 undefined N/A 29.94 1014 10 16 0.00 0.00
3:53 pm 15:53 Cloudy 82 27.8 62 16.7 51 51 E 9 15 29.91 1013 10 16 0.00 0.00
4:53 pm 16:53 Sunny 84 28.9 61 16.1 46 46 ESE 7 11 29.89 1012 10 16 0.00 0.00
5:53 pm 17:53 Mostly Cloudy 83 28.3 62 16.7 49 49 ESE 14 22 29.89 1012 10 16 0.00 0.00
6:53 pm 18:53 Mostly Cloudy 81 27.2 64 17.8 57 57 ESE 14 22 29.90 1013 10 16 0.00 0.00
7:53 pm 19:53 Mostly Cloudy 78 25.6 64 17.8 62 62 ESE 12 19 29.92 1013 10 16 0.00 0.00
8:53 pm 20:53 Clear 74 23.3 63 17.2 69 69 ESE 10 17 29.95 1014 10 16 0.00 0.00
9:53 pm 21:53 Clear 73 22.8 61 16.1 66 66 ESE 9 15 29.97 1015 10 16 0.00 0.00
10:53 pm 22:53 Clear 70 21.1 62 16.7 76 76 E 6 9 29.98 1015 10 16 0.00 0.00
11:53 pm 23:53 Clear 68 20 62 16.7 81 81 E 5 7 29.98 1015 10 16 0.00 0.00

Powered by AerisWeather